TimeCDT,TemperatureF,Dew PointF,Humidity,Sea Level PressureIn,VisibilityMPH,Wind Direction,Wind SpeedMPH,Gust SpeedMPH,PrecipitationIn,Events,Conditions,WindDirDegrees,DateUTC
12:53 AM,21.9,15.1,75,30.44,10.0,Calm,Calm,-,N/A,,Clear,0,2012-10-12 05:53:00
1:53 AM,21.0,15.1,78,30.43,10.0,Calm,Calm,-,N/A,,Clear,0,2012-10-12 06:53:00
2:53 AM,17.6,12.2,79,30.38,10.0,Calm,Calm,-,N/A,,Clear,0,2012-10-12 07:53:00
3:53 AM,18.0,12.0,78,30.42,10.0,SSE,4.6,-,N/A,,Clear,160,2012-10-12 08:53:00
4:53 AM,19.9,15.1,81,30.39,10.0,SSE,5.8,-,N/A,,Scattered Clouds,160,2012-10-12 09:53:00
5:53 AM,19.9,14.0,78,30.38,10.0,SSE,4.6,-,N/A,,Clear,160,2012-10-12 10:53:00
6:53 AM,21.0,16.0,81,30.35,10.0,SSE,9.2,-,N/A,,Clear,160,2012-10-12 11:53:00
7:53 AM,21.9,16.0,78,30.35,10.0,South,8.1,-,N/A,,Clear,170,2012-10-12 12:53:00
8:53 AM,27.0,18.0,69,30.34,10.0,South,9.2,-,N/A,,Clear,170,2012-10-12 13:53:00
9:53 AM,36.0,21.0,55,30.31,10.0,South,13.8,-,N/A,,Clear,180,2012-10-12 14:53:00
10:53 AM,41.0,19.4,42,30.25,10.0,South,23.0,29.9,N/A,,Clear,170,2012-10-12 15:53:00
11:53 AM,46.4,19.4,34,30.21,10.0,South,26.5,35.7,N/A,,Clear,170,2012-10-12 16:53:00
12:53 PM,48.9,16.0,27,30.19,10.0,South,25.3,39.1,N/A,,Clear,180,2012-10-12 17:53:00
1:53 PM,51.1,14.0,23,30.14,10.0,South,24.2,33.4,N/A,,Clear,180,2012-10-12 18:53:00
2:53 PM,54.0,12.0,19,30.08,10.0,South,23.0,33.4,N/A,,Clear,170,2012-10-12 19:53:00
3:53 PM,55.0,12.9,19,30.03,10.0,South,25.3,35.7,N/A,,Clear,180,2012-10-12 20:53:00
4:53 PM,55.0,15.1,21,29.99,10.0,South,28.8,39.1,N/A,,Clear,170,2012-10-12 21:53:00
5:53 PM,55.0,16.0,22,29.96,10.0,South,20.7,31.1,N/A,,Clear,180,2012-10-12 22:53:00
6:53 PM,53.1,18.0,25,29.92,10.0,South,13.8,23.0,N/A,,Clear,170,2012-10-12 23:53:00
7:53 PM,50.0,17.1,27,29.90,10.0,South,11.5,-,N/A,,Clear,170,2012-10-13 00:53:00
8:53 PM,50.0,19.9,31,29.88,10.0,South,15.0,-,N/A,,Partly Cloudy,170,2012-10-13 01:53:00
9:53 PM,52.0,25.0,35,29.86,10.0,South,20.7,27.6,N/A,,Mostly Cloudy,180,2012-10-13 02:53:00
10:53 PM,52.0,28.0,40,29.84,10.0,South,26.5,33.4,N/A,,Mostly Cloudy,180,2012-10-13 03:53:00
11:04 PM,51.8,28.4,41,29.81,10.0,South,25.3,36.8,N/A,,Mostly Cloudy,190,2012-10-13 04:04:00
11:53 PM,51.1,33.1,50,29.82,10.0,South,21.9,32.2,N/A,,Overcast,190,2012-10-13 04:53:00